Location: Unspecified
(44.0704°N, 88.6889°W)
Time: 03:09:36
(UTC+02:00)

Altair - Pass Details

Date: 20 June 2019
Orbit: 1501 x 1683 km, 47.2° (Epoch: 14 October)

Event Time Altitude Azimuth Distance (km) Brightness Sun altitude
Rises 05:37:49 0° 253° (WSW) 4,734 10.3 -15.4°
Reaches altitude 10° 05:40:51 10° 254° (WSW) 3,774 9.7 -15.7°
Maximum altitude 05:50:32 84° 343° (NNW) 1,634 7.6 -16.6°
Drops below altitude 10° 06:00:37 10° 73° (ENE) 3,917 9.5 -17.5°
Sets 06:03:49 0° 74° (ENE) 4,920 10.0 -17.8°
